WMT7VD LATI-LIPE

Flight info

Callsign WMT7VD
Flight time N/A
Altitude 36000
Route DIRES DCT EBELA DCT KOFER DCT RILIM DCT XAMIT DCT UTAME DCT ANC DCT LIKNO DCT PIDEP DCT BAGNO DCT PELEG
Aircraft A321/M-SDE1E2E3GIJ1J4RWXY/LB1

Departure

Time N/A
Airport Tirana International Airport Mother Teresa (LATI)

Arrival

Time 2026-05-03 20:23
Airport Bologna Guglielmo Marconi Airport (LIPE)
Time Latitude Longitude Altitude Speed Heading
2026-05-03 20:15 44.39740 11.36010 6867 ft 277 kts 294°
2026-05-03 20:15 44.40558 11.33580 6627 ft 276 kts 294°
2026-05-03 20:15 44.41395 11.31180 6373 ft 274 kts 295°
2026-05-03 20:15 44.42247 11.28793 6116 ft 273 kts 296°
2026-05-03 20:16 44.43101 11.26421 5859 ft 273 kts 296°
2026-05-03 20:16 44.43954 11.24055 5608 ft 272 kts 296°
2026-05-03 20:16 44.44809 11.21698 5357 ft 271 kts 296°
2026-05-03 20:16 44.45665 11.19370 5165 ft 265 kts 297°
2026-05-03 20:17 44.46499 11.17115 5024 ft 256 kts 297°
2026-05-03 20:17 44.47304 11.14937 4993 ft 250 kts 297°
2026-05-03 20:17 44.48102 11.12770 5001 ft 251 kts 297°
2026-05-03 20:17 44.48905 11.10591 4816 ft 251 kts 297°
2026-05-03 20:18 44.49696 11.08423 4567 ft 249 kts 297°
2026-05-03 20:18 44.50473 11.06267 4310 ft 248 kts 297°
2026-05-03 20:18 44.51374 11.04202 3961 ft 254 kts 315°
2026-05-03 20:18 44.52819 11.02933 3613 ft 244 kts 346°
2026-05-03 20:19 44.54497 11.02894 3272 ft 244 kts 17°
2026-05-03 20:19 44.55936 11.04074 2946 ft 239 kts 46°
2026-05-03 20:19 44.56967 11.05839 2680 ft 226 kts 53°
2026-05-03 20:19 44.57882 11.07593 2561 ft 219 kts 54°
2026-05-03 20:20 44.58733 11.09333 2503 ft 215 kts 63°
2026-05-03 20:20 44.59168 11.11316 2487 ft 214 kts 84°
2026-05-03 20:20 44.59049 11.13317 2324 ft 199 kts 106°
2026-05-03 20:20 44.58503 11.15037 2082 ft 188 kts 117°
2026-05-03 20:21 44.57929 11.16640 1839 ft 179 kts 117°
2026-05-03 20:21 44.57389 11.18149 1603 ft 167 kts 118°
2026-05-03 20:21 44.56885 11.19556 1415 ft 155 kts 118°
2026-05-03 20:21 44.56413 11.20874 1184 ft 149 kts 118°
2026-05-03 20:22 44.55954 11.22153 971 ft 145 kts 118°
2026-05-03 20:22 44.55504 11.23408 776 ft 144 kts 119°
2026-05-03 20:22 44.55057 11.24653 597 ft 142 kts 118°
2026-05-03 20:22 44.54611 11.25891 434 ft 142 kts 119°
2026-05-03 20:23 44.54180 11.27117 257 ft 142 kts 119°
2026-05-03 20:23 44.53738 11.28341 138 ft 133 kts 119°
2026-05-03 20:23 44.53393 11.29287 129 ft 71 kts 116°
2026-05-03 20:23 44.53273 11.29594 125 ft 17 kts 143°
2026-05-03 20:24 44.53166 11.29678 128 ft 18 kts 150°
2026-05-03 20:24 44.53075 11.29760 126 ft 9 kts 146°
2026-05-03 20:24 44.53034 11.29766 129 ft 5 kts 236°
2026-05-03 20:24 44.53043 11.29712 127 ft 7 kts 295°
2026-05-03 20:25 44.53062 11.29658 126 ft 4 kts 296°
2026-05-03 20:25 44.53075 11.29619 130 ft 5 kts 296°
2026-05-03 20:25 44.53080 11.29605 127 ft 0 kts 296°
2026-05-03 20:26 44.53081 11.29601 128 ft 2 kts 290°
2026-05-03 20:27 44.53065 11.29561 129 ft 6 kts 232°
2026-05-03 20:27 44.53047 11.29512 128 ft 5 kts 224°
2026-05-03 20:27 44.53024 11.29493 126 ft 3 kts 207°
2026-05-03 20:27 44.53015 11.29487 128 ft 0 kts 207°
2026-05-03 20:31 44.53015 11.29486 128 ft 0 kts 207°